Probability
0 0 0 0 0 0 0 0 0 0 0 0 0 0 0 0 0 0 1 2 4 7 10 11 9 7 5 6 8 9 9 8 8 9 8 5 2 0 1 2 2 2 3 4 5 4 4 5 8
0 0 0 0 0 0 0 0 0 0 0 0 0 0 0 0 0 0 1 2 4 7 10 11 10 8 5 5 7 10 10 9 8 8 7 5 2 1 0 1 1 1 2 4 4 3 4 6 8
0 0 0 0 0 0 0 0 0 0 0 0 0 0 0 0 0 0 1 2 3 6 10 13 13 10 6 5 7 9 9 7 6 5 4 4 3 1 1 1 1 1 2 3 2 2 4 6 7
0 0 0 0 0 0 0 0 0 0 0 0 0 1 0 0 0 1 2 2 1 3 7 13 15 12 9 7 7 8 7 5 3 2 1 2 2 2 2 2 1 1 2 2 2 2 3 4 4
0 0 0 0 0 0 0 0 0 0 0 0 0 0 0 0 1 1 2 1 0 1 5 10 14 13 10 8 7 7 7 5 3 1 0 1 1 2 2 2 2 2 2 3 3 3 3 3 3
0 0 0 0 0 0 0 0 0 0 0 0 0 0 0 1 3 3 2 1 1 2 4 8 11 11 10 9 8 8 9 8 6 2 1 0 0 2 3 4 3 3 3 5 5 5 4 3 3
0 0 0 0 0 0 0 0 0 0 0 1 1 1 2 3 5 6 5 4 3 4 5 8 9 9 9 9 9 10 11 11 8 5 3 1 0 2 4 5 5 4 5 6 6 6 4 3 2
0 0 0 0 0 0 0 0 0 0 0 1 2 3 4 5 6 8 9 9 8 8 9 9 8 7 8 9 9 10 11 11 9 7 5 2 1 2 4 5 6 6 5 5 5 5 4 3 3
0 0 0 0 0 0 0 0 0 0 0 1 2 3 4 5 8 10 12 13 13 13 12 11 9 8 7 8 9 10 10 10 9 7 6 4 2 2 3 4 6 6 5 4 4 4 4 3 3
0 0 0 0 0 0 0 0 0 0 0 0 2 5 6 8 11 13 15 16 16 15 14 12 11 10 10 10 11 11 11 11 9 6 5 4 5 5 5 6 7 7 5 4 4 4 4 3 2
0 0 0 0 0 0 0 0 0 0 0 0 2 7 10 12 14 15 16 16 16 16 14 12 12 13 14 14 13 13 13 11 9 7 5 6 9 11 10 11 11 10 8 6 4 4 3 3 3
0 0 0 0 0 0 0 0 0 0 0 0 2 6 9 10 12 14 15 15 16 17 15 12 13 15 16 16 14 14 13 11 9 8 7 9 12 14 14 14 14 13 11 7 5 4 3 3 3
0 0 0 0 0 0 0 0 0 0 0 1 2 3 4 4 6 10 13 14 16 17 17 16 16 16 17 17 15 14 12 11 10 9 9 11 13 14 14 15 15 14 12 9 7 5 4 3 4
0 0 0 0 0 0 0 0 0 0 1 2 3 2 1 1 3 7 12 14 16 18 20 20 19 19 19 19 17 15 13 11 10 11 12 12 12 13 13 13 14 13 13 11 8 5 4 4 5
0 0 0 0 0 0 0 0 0 0 1 2 3 2 1 1 4 7 12 16 18 20 22 22 19 19 20 20 19 17 14 12 12 12 12 11 11 11 12 12 13 14 14 11 8 6 5 5 6
0 0 0 0 0 0 0 0 0 0 0 1 2 1 1 2 3 7 12 17 20 21 23 22 19 20 21 21 21 20 17 16 14 13 11 9 8 9 10 12 14 14 13 11 10 8 6 7 8
0 0 0 0 0 0 0 0 0 0 0 0 0 0 1 3 4 8 15 18 20 22 25 24 23 25 26 24 23 23 22 20 16 12 9 7 5 5 7 10 12 12 11 12 12 11 8 7 8
0 0 0 0 0 0 0 0 0 0 0 0 1 1 2 5 7 11 18 21 22 25 28 28 28 31 32 27 24 24 23 20 14 10 8 6 4 4 7 9 9 9 10 11 12 11 10 8 8
0 0 0 0 0 0 0 0 0 0 0 0 1 2 4 7 9 13 18 22 24 26 29 30 29 32 33 28 24 23 20 16 12 9 8 7 5 5 7 8 8 7 8 9 9 10 10 9 9
0 0 0 0 0 0 0 0 0 0 0 0 1 3 5 7 10 13 17 20 22 26 29 29 28 28 29 26 22 18 15 12 10 8 8 6 5 6 7 7 6 6 6 6 7 8 8 8 8
0 0 0 0 0 0 0 0 0 0 1 1 2 4 6 8 9 11 15 18 20 24 27 26 26 26 25 24 21 15 11 10 9 8 6 5 5 5 4 4 3 4 5 5 5 6 7 8 9
0 0 0 0 0 0 0 0 1 1 2 4 4 5 6 7 8 11 14 16 18 21 23 23 25 25 24 23 21 15 11 9 9 8 7 6 5 4 2 1 1 2 3 4 4 4 6 8 10
1 0 0 0 0 0 0 0 1 1 1 3 5 5 5 6 8 11 14 15 16 18 18 19 22 23 23 23 21 17 13 11 10 10 10 8 6 4 2 0 0 1 2 2 3 3 5 7 8
1 0 0 0 0 0 0 0 1 2 1 2 4 5 4 6 9 12 13 13 14 15 16 18 22 23 23 23 21 18 15 12 10 10 11 10 7 4 3 2 2 2 3 3 4 4 5 6 7
1 0 0 0 0 0 0 0 2 3 3 3 5 5 5 6 9 12 12 11 12 14 16 19 22 22 21 21 21 18 15 12 10 9 11 10 8 6 6 6 6 5 5 6 6 6 6 6 7
0 0 0 0 0 0 0 1 2 3 4 5 6 5 3 4 8 12 13 12 13 14 15 17 19 19 19 20 19 16 14 12 9 9 11 11 9 8 9 10 10 7 6 7 8 8 6 6 6
0 0 0 0 0 0 0 1 2 3 4 5 5 3 2 2 6 11 14 13 13 15 14 13 13 15 17 18 16 14 13 11 9 9 11 12 11 9 10 11 11 8 7 7 8 7 6 6 5
0 0 0 0 0 0 0 0 1 3 4 3 3 2 2 3 5 9 12 11 11 14 14 11 10 12 15 15 14 13 12 11 10 10 12 13 12 11 10 10 9 8 8 8 7 5 5 5 4
0 0 0 0 0 0 0 0 2 4 5 4 4 4 5 5 6 8 10 9 9 11 13 12 11 12 12 11 10 10 11 12 11 10 11 13 13 13 12 10 8 7 7 7 6 5 4 4 4
0 0 0 0 0 0 0 1 3 5 6 6 6 7 7 6 6 7 9 9 8 9 13 13 12 12 11 9 8 9 11 13 12 10 11 12 13 13 13 10 7 6 6 6 6 6 5 4 3
Wind_Speed
9 8 7 6 8 3 5 6 4 4 4 4 3 3 4 5 6 7 6 8 9 10 12 13 10 9 9 8 9 9 8 8 8 7 7 7 7 6 6 7 7 7 8 9 9 9 8 8 8
6 6 7 7 6 2 6 6 5 6 5 2 3 2 3 6 6 6 7 9 10 10 11 11 11 9 9 8 8 8 8 8 8 7 7 7 6 6 6 7 7 7 8 9 9 8 8 8 8
6 7 7 5 2 2 6 5 5 4 3 2 3 2 4 6 5 5 7 10 10 10 10 11 11 9 8 8 8 8 8 7 7 7 7 7 7 6 6 7 7 7 8 8 8 8 7 7 7
6 7 6 4 2 4 5 5 4 2 4 2 2 5 6 6 4 6 10 10 10 10 10 12 10 9 8 8 7 7 7 7 6 6 6 6 7 7 7 7 7 7 7 8 7 7 7 7 7
7 6 6 4 3 4 3 3 2 1 3 3 2 4 7 6 6 9 11 10 9 9 9 12 10 8 8 7 7 7 7 6 5 5 5 5 6 6 6 6 7 7 7 7 7 6 6 6 6
6 6 5 4 5 4 3 2 1 2 3 3 2 3 7 6 7 8 10 9 9 8 9 11 10 8 7 7 6 6 6 6 5 5 5 5 5 5 5 6 7 7 6 6 6 6 5 5 5
7 5 4 3 4 4 3 1 1 1 3 3 2 3 6 7 7 8 8 8 8 8 8 9 10 9 8 7 6 6 5 5 5 4 4 4 5 6 6 6 6 6 6 5 6 5 5 5 5
6 5 6 5 4 3 4 2 1 1 4 4 1 1 4 6 8 8 8 7 7 7 6 7 8 8 8 8 8 6 5 5 5 4 5 5 6 6 6 7 6 6 5 5 5 6 5 5 5
7 7 5 4 3 2 3 2 2 1 2 3 1 3 4 9 10 9 8 8 7 6 5 6 6 6 6 7 8 7 7 6 6 6 6 6 5 6 6 5 6 5 5 5 4 5 5 5 7
7 7 3 1 0 1 2 1 1 3 3 3 3 3 6 9 10 10 9 9 8 8 7 6 6 6 6 5 6 5 5 6 5 4 5 4 3 2 3 7 7 6 5 6 6 5 6 7 5
7 5 2 2 2 2 2 1 1 3 2 1 1 4 7 9 9 9 8 8 8 8 7 6 6 5 5 4 4 3 3 3 4 4 4 3 3 3 3 3 5 6 7 5 6 7 4 3 2
6 4 3 2 2 4 4 3 3 3 3 2 1 4 7 9 8 8 7 7 7 8 7 6 6 5 5 4 3 3 3 3 3 3 4 3 2 2 2 2 2 3 2 2 3 2 2 2 2
8 5 4 4 4 4 4 4 3 2 1 1 2 4 6 8 8 7 6 6 6 7 7 6 6 6 5 4 3 3 3 3 2 3 3 3 2 2 2 2 2 2 2 3 3 2 2 3 3
5 5 5 6 6 6 6 5 5 2 2 3 4 4 5 6 6 6 6 6 6 6 6 6 6 5 5 5 3 3 3 3 3 3 3 3 2 2 2 2 2 2 2 2 2 2 2 3 2
5 7 7 8 7 6 6 8 6 3 4 4 4 4 5 5 5 6 6 6 6 6 6 6 6 5 5 5 5 4 3 3 2 2 3 3 3 2 3 2 3 2 2 2 2 3 3 3 3
9 10 9 6 6 5 9 7 4 4 5 4 4 4 4 4 4 4 5 5 5 5 6 6 5 6 6 4 4 3 2 2 2 2 3 3 3 3 3 3 2 2 3 2 2 3 2 2 2
11 11 8 6 6 5 8 6 4 3 5 5 4 4 5 4 4 4 4 5 5 5 5 5 5 5 6 5 4 3 2 2 2 2 2 3 3 4 4 3 2 3 3 3 3 2 2 2 2
9 9 7 6 5 6 7 6 3 4 5 5 5 4 4 4 3 3 4 4 4 5 5 5 5 5 5 5 4 3 3 2 2 2 2 3 3 4 4 3 4 4 3 3 2 2 2 2 2
7 8 7 5 3 6 7 7 5 5 6 5 4 4 4 4 3 3 3 4 4 4 4 4 5 5 4 4 3 3 2 2 2 2 2 3 3 3 3 3 4 4 3 4 4 3 4 2 2
10 10 9 5 4 6 7 8 6 6 6 5 4 4 4 4 4 3 4 4 4 5 4 4 5 5 5 4 3 2 2 2 2 1 2 2 3 3 4 3 4 4 3 4 4 3 3 2 2
12 11 8 6 5 7 8 10 9 7 6 5 5 4 5 5 4 4 4 5 5 5 5 4 4 5 5 5 3 3 2 2 2 2 2 2 2 3 3 4 3 3 4 4 4 4 4 3 2
12 9 9 8 9 7 7 8 7 8 8 7 6 5 5 4 4 4 4 5 5 5 5 5 5 5 5 5 4 4 3 3 3 2 2 2 2 2 3 4 3 3 3 4 4 4 3 3 2
9 6 8 9 10 9 9 10 5 7 9 8 6 5 5 5 4 4 4 4 4 5 5 5 5 5 5 5 5 4 3 3 3 3 2 2 2 2 3 3 4 3 3 4 3 4 4 3 2
7 7 7 9 10 12 10 10 6 6 6 6 6 5 5 5 4 4 3 3 4 4 5 5 5 5 5 5 5 4 3 3 3 3 3 3 2 2 3 3 4 4 3 4 4 4 5 3 2
12 10 8 9 10 8 5 8 4 2 2 4 5 5 5 4 4 4 4 4 4 5 5 5 5 5 5 5 5 4 4 4 4 3 3 3 2 3 3 3 3 3 3 3 3 3 3 3 3
14 14 9 7 7 5 6 8 2 3 3 3 4 5 4 4 4 4 4 4 4 5 5 4 5 5 5 5 5 4 4 3 3 3 3 3 2 2 3 3 3 3 3 3 3 3 3 3 3
14 14 11 10 9 8 6 5 4 5 5 5 5 6 5 5 5 4 4 4 4 4 4 4 5 5 5 5 5 5 4 3 2 3 3 3 2 3 4 4 3 3 3 2 3 2 3 2 2
12 10 9 10 8 9 8 8 5 8 7 6 6 6 6 5 5 4 4 4 4 4 4 4 4 4 5 5 4 4 4 3 3 3 3 2 3 3 3 4 4 4 3 3 3 3 3 2 2
12 13 11 10 9 9 7 3 2 4 6 6 6 6 6 6 6 5 5 5 5 5 5 5 5 5 5 5 5 4 4 4 3 3 3 3 3 3 3 4 4 4 4 3 3 3 3 3 3
12 13 13 10 9 10 9 2 5 3 4 5 5 5 5 5 6 6 5 5 5 5 5 5 5 5 5 5 5 5 4 4 3 3 3 3 3 3 3 4 4 4 3 3 3 3 3 3 3
Wind_Direction
193 202 222 235 235 209 90 78 53 57 58 50 49 32 30 25 14 52 91 132 135 138 136 147 148 146 144 142 139 136 132 129 128 127 124 123 123 118 112 113 120 124 128 127 123 121 120 119 117
198 206 231 240 255 150 93 71 59 45 50 73 107 87 54 67 55 88 120 133 142 139 142 144 143 146 145 143 140 138 137 134 131 129 130 129 126 125 121 118 116 122 126 125 124 124 121 119 115
210 231 254 248 271 47 83 69 56 60 83 105 111 86 43 60 81 106 121 143 144 139 141 134 145 146 145 144 141 141 140 135 131 128 128 129 126 125 128 123 120 118 118 122 125 125 122 121 120
224 221 234 243 152 68 61 64 51 85 111 102 112 107 85 61 68 107 130 147 146 146 148 136 147 146 146 147 147 145 145 138 134 130 126 127 125 123 127 129 130 121 118 121 121 120 120 122 124
239 247 227 200 142 95 73 52 44 91 104 105 118 99 97 86 95 120 140 150 151 149 145 138 147 145 146 150 150 147 144 140 137 135 131 129 127 126 129 132 134 127 124 125 123 119 119 120 124
231 240 231 191 144 124 102 80 108 107 102 106 117 106 95 108 124 136 146 154 152 148 143 135 145 150 153 153 152 149 145 143 139 135 136 133 135 138 138 134 134 131 129 134 137 134 132 130 134
256 248 238 212 159 145 92 89 99 81 97 82 75 94 107 127 130 141 145 149 147 145 143 145 154 158 160 157 152 146 145 144 139 138 142 141 144 146 147 138 133 131 133 141 149 146 144 145 146
271 252 220 207 200 140 106 120 86 31 73 81 122 95 111 129 140 143 143 147 144 144 148 152 159 161 168 163 156 155 154 152 148 152 159 165 166 165 166 165 143 144 146 145 157 159 162 154 152
250 243 219 197 202 136 128 167 117 105 124 127 85 38 92 136 149 150 150 152 149 149 158 161 163 167 175 166 154 170 171 166 175 173 177 197 190 175 179 148 145 159 162 164 162 166 176 180 169
235 241 213 162 268 155 145 162 133 199 181 160 132 97 124 150 160 165 165 162 162 164 171 170 173 172 178 167 159 180 182 171 201 185 185 198 179 190 181 141 160 171 178 185 182 184 195 212 179
229 247 221 203 244 251 216 208 242 246 232 261 202 154 155 164 174 176 176 170 169 171 176 177 175 178 179 172 172 176 186 176 199 191 195 193 190 186 191 171 169 178 189 195 183 197 203 202 186
226 229 243 231 228 242 248 245 240 265 310 330 239 160 165 175 184 184 178 174 171 174 178 179 180 181 188 185 179 185 188 188 196 176 200 190 191 194 187 197 184 190 183 188 203 198 182 208 200
220 219 212 219 221 239 244 242 258 261 281 249 159 161 176 182 185 184 181 175 175 180 181 178 181 182 185 193 203 190 199 198 188 189 188 206 200 194 190 190 200 215 186 188 200 197 190 211 203
216 222 221 225 229 227 232 233 235 231 181 171 169 171 176 181 180 177 178 179 183 186 187 178 184 181 186 189 197 200 205 202 205 191 181 201 212 196 206 200 203 208 199 192 202 190 203 218 209
220 220 219 217 222 223 234 229 227 200 184 181 179 174 172 176 178 183 182 185 184 188 187 185 185 187 192 194 198 202 205 201 206 186 182 197 207 196 221 211 209 196 181 175 195 194 207 210 203
215 223 221 187 205 206 234 233 169 169 187 188 185 176 174 176 186 182 183 187 184 186 183 191 189 183 186 191 196 206 206 193 200 193 187 193 204 204 221 220 209 185 195 183 179 204 204 195 202
212 226 224 180 188 209 231 245 152 186 201 198 195 188 185 178 187 177 179 178 179 184 181 186 187 182 183 179 183 193 190 200 199 194 194 192 210 212 220 216 189 195 196 188 196 177 209 195 194
219 228 222 215 175 215 230 243 200 203 214 211 207 201 191 184 178 165 163 163 168 172 173 180 179 176 177 170 169 177 186 193 188 188 188 198 209 210 218 202 185 199 193 187 175 171 188 211 204
247 242 234 221 181 229 236 248 239 210 219 217 213 203 188 179 156 151 161 160 160 163 165 172 173 163 169 163 174 175 186 190 175 175 172 191 202 201 212 203 178 202 190 183 178 186 180 198 193
235 236 230 207 191 240 243 249 240 225 221 217 213 201 192 187 170 158 163 163 164 165 167 171 175 166 171 168 174 172 181 189 172 166 158 192 198 202 193 188 192 192 181 180 184 195 206 195 200
229 237 237 230 211 229 239 239 221 204 211 205 212 208 194 193 184 175 171 166 164 166 173 176 171 167 169 160 155 142 155 178 161 169 169 185 191 192 185 183 195 193 198 178 186 196 201 200 194
231 230 237 232 236 232 230 260 210 200 203 204 204 199 194 193 190 180 172 170 171 172 170 168 167 166 165 163 165 169 177 176 170 183 170 161 178 184 180 187 188 199 197 178 191 184 196 197 197
233 222 227 233 243 253 231 253 223 191 211 204 197 193 193 194 189 182 177 172 173 168 162 163 163 166 165 168 169 179 179 172 165 168 155 170 170 182 186 186 183 190 195 182 194 184 201 199 206
204 199 214 230 238 242 235 248 242 198 213 198 187 186 188 187 181 175 169 171 171 162 161 161 158 160 161 167 167 171 169 162 153 159 161 176 168 173 183 188 186 190 186 181 190 193 192 200 200
204 209 214 216 220 233 201 238 246 144 194 202 187 180 179 178 176 172 172 174 171 160 159 159 155 157 159 161 160 160 167 171 168 178 182 185 171 172 179 188 187 184 175 173 183 188 195 192 189
209 221 233 242 241 225 193 236 188 130 160 181 180 168 167 175 175 173 174 171 164 158 157 151 153 155 158 158 154 154 167 177 173 184 195 188 182 169 156 170 176 172 167 171 175 179 180 180 183
215 224 243 261 261 256 225 213 180 168 179 178 176 172 171 173 170 173 171 167 160 153 150 147 148 147 152 152 149 150 157 162 146 152 183 174 155 152 157 169 169 165 167 174 172 169 173 170 179
233 225 227 241 246 249 235 231 216 178 185 181 184 182 173 164 163 167 165 161 154 147 143 140 141 143 147 145 151 142 144 148 143 140 133 131 145 148 158 167 164 163 164 165 169 164 161 170 176
204 213 225 237 247 255 254 229 106 173 181 181 176 172 169 171 165 162 163 155 152 150 146 145 139 139 139 140 137 131 137 143 145 140 134 131 134 142 150 152 151 151 153 158 162 170 164 176 181
221 221 221 230 236 248 263 238 95 137 158 167 163 154 154 159 158 155 154 148 148 149 148 145 142 139 138 137 136 134 136 139 141 129 122 126 130 132 137 146 147 149 149 155 162 170 170 183 190